[[{"header":{"parameterUnit":"m.s-1","parameterCategory":1,"la1":30.2991,"la2":30.254,"lo1":-89.0895,"lo2":-89.0444,"dy":0.0017,"dx":0.0017,"nx":28,"ny":28,"refTime":"2026-02-05T03:00:00:Z","depth":0,"parameterNumber":2,"parameterNumberName":"U-component_of_WINDS"},"data":[0,0,0,0,0,0,0,0,0,0,0,0,0,0,0,0,0,0,0,0,0,0,0,0,0,0,0,0,0,0,0,0,0,0,0,0,0,0,0,0,0,0,0,0,0,0,0,0,0,0,0,0,0,0,0,0,0,0,4.5248,4.5249,0,4.5341,4.5342,4.5343,4.5302,4.5299,4.5297,4.5295,4.5398,4.5403,4.5408,0,0,0,0,0,0,0,0,0,0,0,0,0,4.5045,4.5049,4.5248,4.5249,4.525,4.5341,4.5342,4.5344,4.5302,4.5299,4.5296,4.5294,4.5396,4.5402,4.5408,0,0,0,0,0,0,0,0,0,0,0,0,0,4.5135,4.505,4.5248,4.524,4.524,4.5341,4.5342,4.5344,4.5303,4.5299,4.5296,4.5292,4.5394,4.5402,4.5409,4.5524,0,0,4.5431,4.5435,0,0,0,0,0,0,0,0,4.513,4.5143,4.524,4.5241,4.5241,4.5306,4.5308,4.5405,4.5303,4.5279,4.5295,4.5291,4.5371,4.538,4.5405,4.5529,4.5534,4.5432,4.5437,4.544,4.5442,0,0,0,0,0,0,0,4.5124,4.5139,4.5285,4.5242,4.5242,4.5236,4.5245,4.5327,4.5344,4.5281,4.5278,4.5289,4.537,4.5398,4.5407,4.5535,4.5432,4.5438,4.5443,4.5446,4.5768,4.5771,0,0,0,0,0,0,4.5116,4.5134,4.5282,4.5288,4.5176,4.5242,4.5252,4.5289,4.5343,4.5347,4.5292,4.5287,4.5387,4.5399,4.5411,4.5556,4.544,4.5447,4.5451,4.5763,4.5768,4.5773,0,0,0,0,0,0,4.5112,4.513,4.5278,4.521,4.5228,4.5249,4.5291,4.5293,4.532,4.5351,4.5355,4.5317,4.5385,4.54,4.5498,4.5558,4.545,4.5457,4.5759,4.5765,4.5771,4.5842,0,0,0,0,0,0,4.5107,4.5129,4.517,4.5211,4.5232,4.536,4.5294,4.5297,4.5332,4.5326,4.5375,4.538,4.5383,4.5487,4.5505,4.5566,4.5462,4.5753,4.5761,4.5769,4.5834,4.585,4.5863,0,0,0,0,0,4.5099,4.5186,4.5172,4.519,4.5283,4.5364,4.5376,4.5376,4.5337,4.5381,4.5402,4.5378,4.5548,4.5497,4.5517,4.5582,4.575,4.5759,4.5768,4.5828,4.5847,4.5863,0,0,0,0,0,0,4.5152,4.5191,4.5176,4.5278,4.5318,4.5356,4.5411,4.5395,4.5448,4.5441,4.5441,4.5453,4.5555,4.5577,4.552,4.5701,4.5644,4.5657,4.5682,4.57,4.5714,4.5709,4.5468,0,0,0,0,0,4.5175,4.5234,4.5266,4.5353,4.5374,4.539,4.5424,4.5421,4.5464,4.5481,4.5508,4.5553,4.5618,4.566,4.5719,4.5837,4.5851,4.5892,4.5906,4.5918,4.5931,4.6002,4.6023,4.5803,4.5803,4.5803,0,0,4.5224,4.5253,4.529,4.5365,4.5395,4.5461,4.5404,4.5474,4.5524,4.5492,4.5587,4.5609,4.566,4.577,4.5819,4.5792,4.5995,4.593,4.5939,4.5946,4.6014,4.6035,4.6053,4.581,4.5808,4.5807,0,0,4.5348,4.5373,4.5452,4.5484,4.5531,4.5542,4.5561,4.5603,4.5617,4.5711,4.5691,4.5753,4.5861,4.59,4.5934,4.6079,4.6062,4.6099,4.6175,4.6245,4.6262,4.6278,4.6336,4.6356,4.6111,4.6111,4.6111,0,4.5404,4.5499,4.5495,4.5569,4.5605,4.5578,4.5661,4.5693,4.5759,4.5787,4.5754,4.5894,4.5925,4.6048,4.6084,4.611,4.6137,4.6094,4.6259,4.6275,4.6289,4.6345,4.6366,4.6116,4.6115,4.6115,4.6114,0,4.5569,4.5636,4.5694,4.5758,4.5801,4.5878,4.5891,4.5935,4.593,4.5945,4.6046,4.6084,4.6154,4.6182,4.6177,4.6306,4.6288,4.6257,4.6201,4.6315,4.6368,4.6388,4.6122,4.6121,4.6119,4.6118,0,0,4.5728,4.5791,4.5813,4.5845,4.5897,4.5951,4.603,4.6098,4.6139,4.6186,4.6257,4.6352,4.6326,4.6365,4.6364,4.6425,4.6546,4.6388,4.6389,4.6421,4.6699,4.6726,4.675,4.6534,4.6538,4.6541,4.6697,0,4.586,4.5997,4.5998,4.6126,4.6192,4.617,4.6241,4.6283,4.6301,4.6363,4.6384,4.6454,4.641,4.6434,4.6493,4.6519,4.6603,4.6507,4.6606,4.661,4.6598,4.6776,4.6803,4.6948,4.6717,4.672,4.6723,0,4.6032,4.6086,4.622,4.6269,4.6297,4.6359,4.6426,4.6482,4.6533,4.6543,4.6589,4.6581,4.6668,4.6607,4.6731,4.6666,4.6707,4.6726,4.6732,4.6745,4.6676,4.6799,4.6993,4.7017,4.6754,4.6751,4.6749,0,4.6142,4.6248,4.6344,4.6371,4.6428,4.6474,4.6501,4.6547,4.659,4.6649,4.6678,4.6746,4.6785,4.684,4.6854,4.6807,4.6981,4.6918,4.6997,4.6997,4.7037,4.7035,4.7246,4.7055,4.7055,4.7054,4.7054,0,4.6293,4.6378,4.6395,4.6454,4.6551,4.6553,4.6651,4.6674,4.6717,4.6785,4.6769,4.6834,4.6845,4.6915,4.6926,4.7031,4.7047,4.7062,4.7065,4.7066,4.7065,4.7096,4.7088,4.706,4.7059,4.7058,4.7057,0,4.6433,4.6447,4.6551,4.6598,4.6612,4.6682,4.6725,4.6785,4.6802,4.6888,4.6909,4.6938,4.7019,4.7037,4.7132,4.7141,4.7268,4.7258,4.725,4.7251,4.7331,4.7325,4.7572,4.7608,4.7389,4.7391,4.7393,0,4.653,4.6595,4.665,4.6693,4.6723,4.6792,4.6837,4.6843,4.6891,4.6957,4.7011,4.7089,4.7153,4.7285,4.7317,4.7393,4.7388,4.747,4.74,4.7401,4.7397,4.7395,4.7405,4.7484,4.7487,4.7489,4.749,0,4.6703,4.6708,4.6771,4.6839,4.6892,4.6946,4.6997,4.7034,4.7049,4.7104,4.7186,4.7236,4.7336,4.7417,4.7494,4.7526,4.7514,4.7512,4.7535,4.7539,4.7535,4.7545,4.7293,4.7507,4.7505,4.7504,4.7503,4.7502,4.6829,4.6888,4.6938,4.7011,4.705,4.71,4.716,4.7186,4.7254,4.7334,4.7335,4.7427,4.7482,4.7584,4.7621,4.7696,4.7672,4.7703,4.7713,4.7722,4.7732,4.7519,4.771,4.7709,4.7709,4.7708,4.7708,0,4.7007,4.7038,4.7105,4.7178,4.7237,4.7216,4.7274,4.7326,4.7406,4.7458,4.7522,4.762,4.77,4.774,4.7821,4.7874,4.7871,4.7896,4.7894,4.7904,4.7746,4.7721,4.7897,4.7897,4.7897,4.7897,4.7897,4.7897,4.7106,4.7208,4.722,4.7344,4.7375,4.7464,4.7499,4.7548,4.7589,4.7699,4.7765,4.779,4.7839,4.7924,4.7999,4.8009,4.8042,4.8071,4.8079,4.7933,4.7914,4.7895,4.7872,4.8077,4.8077,4.8231,4.8233,4.8234]},{"header":{"parameterUnit":"m.s-1","parameterCategory":1,"la1":30.2991,"la2":30.254,"lo1":-89.0895,"lo2":-89.0444,"dy":0.0017,"dx":0.0017,"nx":28,"ny":28,"refTime":"2026-02-05T03:00:00:Z","depth":0,"parameterNumber":3,"parameterNumberName":"V-component_of_WINDS"},"data":[0,0,0,0,0,0,0,0,0,0,0,0,0,0,0,0,0,0,0,0,0,0,0,0,0,0,0,0,0,0,0,0,0,0,0,0,0,0,0,0,0,0,0,0,0,0,0,0,0,0,0,0,0,0,0,0,0,0,-0.2564,-0.2563,0,-0.2496,-0.2495,-0.2494,-0.2514,-0.2516,-0.2517,-0.2519,-0.2447,-0.2444,-0.2441,0,0,0,0,0,0,0,0,0,0,0,0,0,-0.2714,-0.2711,-0.2564,-0.2563,-0.2562,-0.2496,-0.2495,-0.2494,-0.2514,-0.2516,-0.2518,-0.2519,-0.2449,-0.2445,-0.2441,0,0,0,0,0,0,0,0,0,0,0,0,0,-0.2647,-0.271,-0.2564,-0.2565,-0.2564,-0.2496,-0.2495,-0.2494,-0.2514,-0.2516,-0.2518,-0.252,-0.245,-0.2445,-0.244,-0.2368,0,0,-0.2426,-0.2423,0,0,0,0,0,0,0,0,-0.2651,-0.2642,-0.2565,-0.2564,-0.2564,-0.2516,-0.2522,-0.2451,-0.2513,-0.2533,-0.2519,-0.2521,-0.2468,-0.2462,-0.2445,-0.2364,-0.2361,-0.2425,-0.2422,-0.242,-0.2419,0,0,0,0,0,0,0,-0.2656,-0.2645,-0.2537,-0.2564,-0.2563,-0.2569,-0.2561,-0.2508,-0.2489,-0.2531,-0.2533,-0.2524,-0.2468,-0.2449,-0.2443,-0.236,-0.2425,-0.2421,-0.2418,-0.2416,-0.222,-0.2218,0,0,0,0,0,0,-0.2661,-0.2649,-0.2539,-0.2535,-0.2614,-0.2564,-0.2556,-0.2529,-0.249,-0.2486,-0.2522,-0.2525,-0.2456,-0.2449,-0.2441,-0.2355,-0.242,-0.2416,-0.2413,-0.2223,-0.222,-0.2217,0,0,0,0,0,0,-0.2664,-0.2651,-0.2542,-0.2592,-0.2579,-0.2559,-0.2528,-0.2526,-0.2507,-0.2483,-0.248,-0.2506,-0.2458,-0.2447,-0.2386,-0.2353,-0.2413,-0.2409,-0.2225,-0.2222,-0.2219,-0.2182,0,0,0,0,0,0,-0.2668,-0.2652,-0.2624,-0.2591,-0.2576,-0.2488,-0.2526,-0.2524,-0.2499,-0.2502,-0.2467,-0.2464,-0.2459,-0.2394,-0.2382,-0.2347,-0.2405,-0.2228,-0.2224,-0.222,-0.2187,-0.2178,-0.2171,0,0,0,0,0,-0.2674,-0.2615,-0.2622,-0.2609,-0.254,-0.2486,-0.2477,-0.2473,-0.2496,-0.2468,-0.2453,-0.2465,-0.2359,-0.2387,-0.2374,-0.2338,-0.223,-0.2225,-0.222,-0.219,-0.218,-0.2171,0,0,0,0,0,0,-0.2643,-0.2611,-0.2618,-0.2547,-0.252,-0.249,-0.2454,-0.2462,-0.2427,-0.2431,-0.2427,-0.2419,-0.2357,-0.2341,-0.2374,-0.2267,-0.2298,-0.229,-0.228,-0.227,-0.2262,-0.2268,-0.2401,0,0,0,0,0,-0.2628,-0.2587,-0.2561,-0.2501,-0.2487,-0.2473,-0.2449,-0.2449,-0.242,-0.2408,-0.2388,-0.2359,-0.232,-0.2294,-0.2256,-0.2185,-0.2178,-0.2153,-0.2146,-0.2139,-0.2133,-0.2097,-0.2086,-0.2201,-0.2201,-0.2201,0,0,-0.2596,-0.2574,-0.2548,-0.2495,-0.2473,-0.2432,-0.2463,-0.2417,-0.2386,-0.2401,-0.2343,-0.2327,-0.2295,-0.223,-0.22,-0.2214,-0.21,-0.2133,-0.2128,-0.2125,-0.209,-0.2079,-0.207,-0.2197,-0.2198,-0.2198,0,0,-0.2518,-0.2496,-0.2446,-0.2424,-0.2391,-0.2383,-0.2371,-0.234,-0.2331,-0.2273,-0.2284,-0.2248,-0.2179,-0.2157,-0.2136,-0.2053,-0.2063,-0.2041,-0.2,-0.1965,-0.1956,-0.1948,-0.1921,-0.1911,-0.2034,-0.2034,-0.2034,0,-0.2483,-0.2421,-0.2418,-0.2372,-0.2349,-0.2362,-0.2311,-0.229,-0.2247,-0.2231,-0.2248,-0.2165,-0.2144,-0.2074,-0.2054,-0.2037,-0.2024,-0.2045,-0.1958,-0.195,-0.1942,-0.1916,-0.1905,-0.2032,-0.2032,-0.2032,-0.2032,0,-0.238,-0.2337,-0.23,-0.2259,-0.2232,-0.2184,-0.2175,-0.2148,-0.2151,-0.2141,-0.2083,-0.2059,-0.2018,-0.2001,-0.2002,-0.1932,-0.1943,-0.1959,-0.199,-0.1929,-0.1904,-0.1894,-0.2028,-0.2029,-0.203,-0.203,0,0,-0.2279,-0.224,-0.2226,-0.221,-0.2176,-0.2143,-0.2096,-0.2057,-0.2035,-0.2005,-0.1967,-0.191,-0.1925,-0.1902,-0.1901,-0.187,-0.1809,-0.1891,-0.189,-0.1878,-0.1734,-0.1723,-0.1711,-0.1816,-0.1814,-0.1812,-0.1737,0,-0.22,-0.2118,-0.2116,-0.2041,-0.2003,-0.2015,-0.1975,-0.1951,-0.1941,-0.1907,-0.1896,-0.1857,-0.1879,-0.1866,-0.1836,-0.1823,-0.1781,-0.1828,-0.1782,-0.178,-0.179,-0.1698,-0.1686,-0.1616,-0.1728,-0.1726,-0.1725,0,-0.2095,-0.2064,-0.1986,-0.1961,-0.1945,-0.1908,-0.1874,-0.1841,-0.1814,-0.181,-0.1785,-0.179,-0.1744,-0.1777,-0.1714,-0.1747,-0.1728,-0.1719,-0.1716,-0.1712,-0.1749,-0.1693,-0.1594,-0.1584,-0.1709,-0.171,-0.1711,0,-0.2032,-0.197,-0.1917,-0.1901,-0.187,-0.1845,-0.183,-0.1806,-0.1783,-0.1753,-0.1739,-0.1703,-0.1684,-0.1657,-0.1653,-0.1677,-0.1591,-0.1623,-0.1587,-0.1587,-0.1569,-0.157,-0.1466,-0.1554,-0.1554,-0.1555,-0.1555,0,-0.1944,-0.1896,-0.1888,-0.1855,-0.1803,-0.1801,-0.175,-0.1738,-0.1716,-0.1682,-0.169,-0.1658,-0.1654,-0.1621,-0.1617,-0.1567,-0.1558,-0.1554,-0.1554,-0.1554,-0.1555,-0.1542,-0.1547,-0.1552,-0.1552,-0.1553,-0.1553,0,-0.1865,-0.1857,-0.1799,-0.1775,-0.1768,-0.1731,-0.1711,-0.168,-0.1672,-0.1629,-0.1618,-0.1606,-0.1568,-0.1561,-0.1515,-0.1513,-0.1454,-0.1458,-0.1463,-0.1464,-0.143,-0.1434,-0.1315,-0.13,-0.1397,-0.1396,-0.1395,0,-0.1809,-0.1773,-0.1746,-0.1724,-0.1709,-0.1673,-0.1651,-0.1649,-0.1626,-0.1594,-0.1568,-0.1531,-0.1501,-0.144,-0.1427,-0.1393,-0.1398,-0.1358,-0.1392,-0.1395,-0.1399,-0.1402,-0.14,-0.1352,-0.1351,-0.135,-0.1349,0,-0.1713,-0.1712,-0.168,-0.1647,-0.162,-0.1594,-0.1569,-0.1551,-0.1546,-0.1519,-0.1481,-0.1458,-0.1413,-0.1377,-0.1344,-0.133,-0.1339,-0.1339,-0.1329,-0.1329,-0.1335,-0.1334,-0.1447,-0.1342,-0.1342,-0.1343,-0.1343,-0.1344,-0.1645,-0.1615,-0.1592,-0.1557,-0.1538,-0.1516,-0.1486,-0.1476,-0.1444,-0.1407,-0.1408,-0.1367,-0.1344,-0.1301,-0.1285,-0.1254,-0.1266,-0.1251,-0.1248,-0.1245,-0.1243,-0.1339,-0.1247,-0.1247,-0.1248,-0.1248,-0.1248,0,-0.1552,-0.1538,-0.1505,-0.1471,-0.1444,-0.1456,-0.143,-0.1406,-0.137,-0.1348,-0.1319,-0.1277,-0.1243,-0.1228,-0.1195,-0.1173,-0.1176,-0.1164,-0.1167,-0.1164,-0.1232,-0.1245,-0.1162,-0.1162,-0.1162,-0.1162,-0.1162,-0.1162,-0.1499,-0.145,-0.1446,-0.1388,-0.1375,-0.1335,-0.132,-0.13,-0.1282,-0.1235,-0.1207,-0.1198,-0.118,-0.1146,-0.1116,-0.1112,-0.1101,-0.1087,-0.1086,-0.115,-0.1159,-0.1167,-0.1179,-0.1084,-0.1084,-0.102,-0.102,-0.1019]}]]